,,,PA_Meas_PMT16A,,PR_Meas_QMR101_102,,RH_Meas_QMH101,,SR_Meas_QMS101,,TA_Meas_QMH101,,GenWind,,GenWind,
date,time,status,PA,status,PR,status,RH,status,SR,status,TA,status,DirAvg,status,SpdAvg,
2008-03-25, 00:00:04,VALID,1004.26,VALID,0,VALID,95.4831,VALID,0,VALID,23.9389,VALID,350,VALID,0.507031,
2008-03-25, 00:01:04,VALID,1004.27,VALID,0,VALID,95.567,VALID,0,VALID,23.9195,VALID,350,VALID,0.483984,
2008-03-25, 00:02:04,VALID,1004.29,VALID,0,VALID,95.6204,VALID,0,VALID,23.9408,VALID,353,VALID,0.726172,
2008-03-25, 00:03:04,VALID,1004.27,VALID,0,VALID,95.6662,VALID,0,VALID,23.9584,VALID,340,VALID,0.630859,
2008-03-25, 00:04:04,VALID,1004.27,VALID,0,VALID,95.6433,VALID,0.100563,VALID,23.9779,VALID,344,VALID,0.495703,
2008-03-25, 00:05:04,VALID,1004.27,VALID,0,VALID,95.6204,VALID,0.100563,VALID,23.9779,VALID,344,VALID,0.507422,
2008-03-25, 00:06:04,VALID,1004.24,VALID,0,VALID,95.6433,VALID,0,VALID,23.9779,VALID,351,VALID,0.638281,
2008-03-25, 00:07:04,VALID,1004.27,VALID,0,VALID,95.628,VALID,0,VALID,23.9761,VALID,352,VALID,0.6,
2008-03-25, 00:08:04,VALID,1004.23,VALID,0,VALID,95.567,VALID,0,VALID,23.9992,VALID,351,VALID,0.628906,
2008-03-25, 00:09:04,VALID,1004.27,VALID,0,VALID,95.3839,VALID,0.100563,VALID,24.0168,VALID,352,VALID,0.599219,
2008-03-25, 00:10:04,VALID,1004.25,VALID,0,VALID,95.3305,VALID,0.100563,VALID,23.9973,VALID,352,VALID,0.588281,
2008-03-25, 00:11:04,VALID,1004.25,VALID,0,VALID,95.2466,VALID,0.100563,VALID,23.9761,VALID,349,VALID,0.577734,
2008-03-25, 00:12:04,VALID,1004.25,VALID,0,VALID,95.1779,VALID,0.100563,VALID,23.9566,VALID,351,VALID,0.705078,
2008-03-25, 00:13:04,VALID,1004.25,VALID,0,VALID,95.1855,VALID,0,VALID,23.9584,VALID,354,VALID,0.610937,
2008-03-25, 00:14:04,VALID,1004.23,VALID,0,VALID,95.094,VALID,0,VALID,23.9992,VALID,348,VALID,0.608984,
2008-03-25, 00:15:04,VALID,1004.23,VALID,0,VALID,95.0406,VALID,0.100563,VALID,23.9584,VALID,343,VALID,0.378516,
2008-03-25, 00:16:04,VALID,1004.17,VALID,0,VALID,95.0635,VALID,0.100563,VALID,23.9779,VALID,342,VALID,0.198828,
2008-03-25, 00:17:04,VALID,1004.17,VALID,0,VALID,95.0558,VALID,0,VALID,24.0186,VALID,342,VALID,0.164844,
2008-03-25, 00:18:04,VALID,1004.13,VALID,0,VALID,94.9796,VALID,0.100563,VALID,24.0168,VALID,326,VALID,0.266797,
2008-03-25, 00:19:04,VALID,1004.14,VALID,0,VALID,94.7888,VALID,0.100563,VALID,24.0363,VALID,357,VALID,0.580469,
2008-03-25, 00:20:04,VALID,1004.1,VALID,0,VALID,94.6668,VALID,0.100563,VALID,24.0557,VALID,342,VALID,0.605859,
2008-03-25, 00:21:04,VALID,1004.11,VALID,0,VALID,94.4989,VALID,0,VALID,24.0557,VALID,350,VALID,0.412891,
2008-03-25, 00:22:04,VALID,1004.1,VALID,0,VALID,94.354,VALID,0.100563,VALID,24.0734,VALID,345,VALID,0.591797,
2008-03-25, 00:23:04,VALID,1004.06,VALID,0,VALID,94.2548,VALID,0,VALID,24.1142,VALID,350,VALID,0.569922,
2008-03-25, 00:24:04,VALID,1004.09,VALID,0,VALID,94.1709,VALID,0,VALID,24.1142,VALID,350,VALID,0.5375,
2008-03-25, 00:25:04,VALID,1004.06,VALID,0,VALID,94.148,VALID,0,VALID,24.0947,VALID,350,VALID,0.504687,
2008-03-25, 00:26:04,VALID,1004.05,VALID,0,VALID,94.0641,VALID,0,VALID,24.1142,VALID,350,VALID,0.527734,
2008-03-25, 00:27:04,VALID,1004.05,VALID,0,VALID,94.0565,VALID,0,VALID,24.0752,VALID,350,VALID,0.583984,
2008-03-25, 00:28:04,VALID,1004.04,VALID,0,VALID,94.1099,VALID,0,VALID,24.0752,VALID,342,VALID,0.670313,
2008-03-25, 00:29:04,VALID,1004.04,VALID,0,VALID,94.0946,VALID,0,VALID,24.0752,VALID,353,VALID,0.683594,
2008-03-25, 00:30:04,VALID,1004.02,VALID,0,VALID,94.087,VALID,0,VALID,24.0752,VALID,346,VALID,0.629297,
2008-03-25, 00:31:04,VALID,1003.98,VALID,0,VALID,94.0488,VALID,0,VALID,24.0539,VALID,353,VALID,0.596875,
2008-03-25, 00:32:04,VALID,1004.01,VALID,0,VALID,94.0488,VALID,0,VALID,24.0752,VALID,346,VALID,0.184766,
2008-03-25, 00:33:04,VALID,1004,VALID,0,VALID,93.9802,VALID,0.100563,VALID,24.0752,VALID,351,VALID,0.371484,
2008-03-25, 00:34:04,VALID,1003.99,VALID,0,VALID,93.9649,VALID,0,VALID,24.0947,VALID,358,VALID,0.219531,
2008-03-25, 00:35:04,VALID,1003.99,VALID,0,VALID,93.9802,VALID,0,VALID,24.1142,VALID,353,VALID,0.155469,
2008-03-25, 00:36:04,VALID,1003.98,VALID,0,VALID,93.9649,VALID,0,VALID,24.116,VALID,353,VALID,0.180469,
2008-03-25, 00:37:04,VALID,1003.96,VALID,0,VALID,93.8429,VALID,0,VALID,24.1142,VALID,347,VALID,0.661328,
2008-03-25, 00:38:04,VALID,1003.97,VALID,0,VALID,93.7132,VALID,0,VALID,24.0947,VALID,347,VALID,0.640625,
2008-03-25, 00:39:04,VALID,1003.96,VALID,0,VALID,93.675,VALID,0,VALID,24.0752,VALID,348,VALID,0.666797,
2008-03-25, 00:40:04,VALID,1003.96,VALID,0,VALID,93.614,VALID,0,VALID,24.0965,VALID,348,VALID,0.4625,
2008-03-25, 00:41:04,VALID,1003.92,VALID,0,VALID,93.5682,VALID,0,VALID,24.0752,VALID,354,VALID,0.628516,
2008-03-25, 00:42:04,VALID,1003.94,VALID,0,VALID,93.5224,VALID,0,VALID,24.0363,VALID,353,VALID,0.587109,
2008-03-25, 00:43:04,VALID,1003.91,VALID,0,VALID,93.5377,VALID,0,VALID,24.077,VALID,352,VALID,0.580469,
2008-03-25, 00:44:04,VALID,1003.9,VALID,0,VALID,93.4996,VALID,0,VALID,24.0557,VALID,353,VALID,0.501953,
2008-03-25, 00:45:04,VALID,1003.86,VALID,0,VALID,93.4462,VALID,0.100563,VALID,24.0345,VALID,353,VALID,0.524609,
2008-03-25, 00:46:04,VALID,1003.87,VALID,0,VALID,93.3165,VALID,0,VALID,24.0557,VALID,353,VALID,0.654688,
2008-03-25, 00:47:04,VALID,1003.85,VALID,0,VALID,93.1791,VALID,0.100563,VALID,24.0752,VALID,352,VALID,0.756641,
2008-03-25, 00:48:04,VALID,1003.85,VALID,0,VALID,93.0266,VALID,0.100563,VALID,24.0752,VALID,353,VALID,0.527344,
2008-03-25, 00:49:04,VALID,1003.83,VALID,0,VALID,92.8892,VALID,0,VALID,24.0734,VALID,353,VALID,0.465234,
2008-03-25, 00:50:04,VALID,1003.79,VALID,0,VALID,92.8206,VALID,0,VALID,24.1531,VALID,353,VALID,0,
2008-03-25, 00:51:04,VALID,1003.8,VALID,0,VALID,92.7062,VALID,0,VALID,24.1726,VALID,353,VALID,0.3625,
2008-03-25, 00:52:04,VALID,1003.79,VALID,0,VALID,92.6299,VALID,0,VALID,24.1726,VALID,353,VALID,0.433594,
2008-03-25, 00:53:04,VALID,1003.79,VALID,0,VALID,92.607,VALID,0,VALID,24.1744,VALID,353,VALID,0.383594,
2008-03-25, 00:54:04,VALID,1003.74,VALID,0,VALID,92.5536,VALID,0,VALID,24.1726,VALID,354,VALID,0.361328,
2008-03-25, 00:55:04,VALID,1003.77,VALID,0,VALID,92.5307,VALID,0,VALID,24.192,VALID,354,VALID,0.155078,
2008-03-25, 00:56:04,VALID,1003.73,VALID,0,VALID,92.5841,VALID,0.100563,VALID,24.2115,VALID,354,VALID,0.301172,
2008-03-25, 00:57:04,VALID,1003.72,VALID,0,VALID,92.546,VALID,0,VALID,24.192,VALID,354,VALID,0,
2008-03-25, 00:58:04,VALID,1003.73,VALID,0,VALID,92.5765,VALID,0,VALID,24.192,VALID,354,VALID,0.034375,
2008-03-25, 00:59:04,VALID,1003.72,VALID,0,VALID,92.5688,VALID,0,VALID,24.192,VALID,354,VALID,0.574219,
2008-03-25, 01:00:04,VALID,1003.69,VALID,0,VALID,92.4468,VALID,0,VALID,24.1726,VALID,323,VALID,0.645703,
2008-03-25, 01:01:04,VALID,1003.66,VALID,0,VALID,92.2866,VALID,0,VALID,24.2115,VALID,342,VALID,1.19102,
2008-03-25, 01:02:04,VALID,1003.68,VALID,0,VALID,92.0272,VALID,0,VALID,24.231,VALID,340,VALID,0.629297,
2008-03-25, 01:03:04,VALID,1003.64,VALID,0,VALID,91.6305,VALID,0,VALID,24.2504,VALID,331,VALID,0.899609,
2008-03-25, 01:04:04,VALID,1003.65,VALID,0,VALID,91.1804,VALID,0,VALID,24.2894,VALID,338,VALID,0.507422,
2008-03-25, 01:05:04,VALID,1003.62,VALID,0,VALID,90.9057,VALID,0.100563,VALID,24.3088,VALID,358,VALID,0.173828,
2008-03-25, 01:06:04,VALID,1003.62,VALID,0,VALID,90.2802,VALID,0,VALID,24.3496,VALID,342,VALID,0.531641,
2008-03-25, 01:07:04,VALID,1003.6,VALID,0,VALID,90.2725,VALID,0,VALID,24.3886,VALID,342,VALID,0.11875,
2008-03-25, 01:08:04,VALID,1003.62,VALID,0,VALID,89.5936,VALID,0,VALID,24.408,VALID,342,VALID,0.627734,
2008-03-25, 01:09:04,VALID,1003.62,VALID,0,VALID,89.38,VALID,0,VALID,24.4275,VALID,343,VALID,0.521484,
2008-03-25, 01:10:04,VALID,1003.6,VALID,0,VALID,89.1892,VALID,0,VALID,24.4451,VALID,334,VALID,0.511328,
2008-03-25, 01:11:04,VALID,1003.58,VALID,0,VALID,88.968,VALID,0,VALID,24.4646,VALID,341,VALID,0.512109,
2008-03-25, 01:12:04,VALID,1003.55,VALID,0,VALID,88.7086,VALID,0,VALID,24.4841,VALID,350,VALID,0.580078,
2008-03-25, 01:13:04,VALID,1003.55,VALID,0,VALID,88.64,VALID,0,VALID,24.4841,VALID,351,VALID,0.289844,
2008-03-25, 01:14:04,VALID,1003.55,VALID,0,VALID,88.5713,VALID,0,VALID,24.5249,VALID,349,VALID,0.546484,
2008-03-25, 01:15:04,VALID,1003.53,VALID,0,VALID,88.4492,VALID,0,VALID,24.523,VALID,344,VALID,0.675391,
2008-03-25, 01:16:04,VALID,1003.5,VALID,0,VALID,88.2967,VALID,0,VALID,24.523,VALID,341,VALID,0.696484,
2008-03-25, 01:17:04,VALID,1003.49,VALID,0,VALID,88.3806,VALID,0,VALID,24.5425,VALID,352,VALID,0.694141,
2008-03-25, 01:18:04,VALID,1003.46,VALID,0,VALID,88.3653,VALID,0,VALID,24.5425,VALID,350,VALID,0.713281,
2008-03-25, 01:19:04,VALID,1003.41,VALID,0,VALID,88.4492,VALID,0,VALID,24.562,VALID,347,VALID,0.611328,
2008-03-25, 01:20:04,VALID,1003.41,VALID,0,VALID,88.5637,VALID,0,VALID,24.5443,VALID,356,VALID,0.612109,
2008-03-25, 01:21:04,VALID,1003.35,VALID,0,VALID,88.6857,VALID,0,VALID,24.523,VALID,355,VALID,0.728125,
2008-03-25, 01:22:04,VALID,1003.33,VALID,0,VALID,88.9222,VALID,0,VALID,24.5249,VALID,358,VALID,0.620313,
2008-03-25, 01:23:04,VALID,1003.3,VALID,0,VALID,89.0367,VALID,0,VALID,24.4646,VALID,338,VALID,0.54375,
2008-03-25, 01:24:04,VALID,1003.27,VALID,0,VALID,89.3418,VALID,0,VALID,24.4451,VALID,351,VALID,0.539063,
2008-03-25, 01:25:04,VALID,1003.27,VALID,0,VALID,89.853,VALID,0,VALID,24.4062,VALID,350,VALID,0.391016,
2008-03-25, 01:26:04,VALID,1003.26,VALID,0,VALID,90.1657,VALID,0,VALID,24.3673,VALID,350,VALID,0.430078,
2008-03-25, 01:27:04,VALID,1003.26,VALID,0,VALID,90.6845,VALID,0.100563,VALID,24.3088,VALID,350,VALID,0.38125,
2008-03-25, 01:28:04,VALID,1003.24,VALID,0,VALID,90.7455,VALID,0.100563,VALID,24.2504,VALID,350,VALID,0.349219,
2008-03-25, 01:29:04,VALID,1003.22,VALID,0,VALID,91.0354,VALID,0,VALID,24.192,VALID,350,VALID,0.51875,
2008-03-25, 01:30:04,VALID,1003.2,VALID,0,VALID,91.2338,VALID,0,VALID,24.1531,VALID,350,VALID,0.416406,
2008-03-25, 01:31:04,VALID,1003.2,VALID,0,VALID,91.4703,VALID,0,VALID,24.1142,VALID,350,VALID,0.280469,
2008-03-25, 01:32:04,VALID,1003.17,VALID,0,VALID,91.6076,VALID,0,VALID,24.0752,VALID,350,VALID,0.271484,
2008-03-25, 01:33:04,VALID,1003.18,VALID,0,VALID,91.7907,VALID,0,VALID,24.0557,VALID,350,VALID,0.290234,
2008-03-25, 01:34:04,VALID,1003.16,VALID,0,VALID,91.9662,VALID,0,VALID,24.0557,VALID,350,VALID,0,
2008-03-25, 01:35:04,VALID,1003.18,VALID,0,VALID,92.0043,VALID,0,VALID,24.0557,VALID,350,VALID,0.0347656,
2008-03-25, 01:36:04,VALID,1003.16,VALID,0,VALID,92.0653,VALID,0,VALID,24.0168,VALID,350,VALID,0.404687,
2008-03-25, 01:37:04,VALID,1003.2,VALID,0,VALID,92.2103,VALID,0,VALID,24.0168,VALID,350,VALID,0.516797,
2008-03-25, 01:38:04,VALID,1003.19,VALID,0,VALID,92.2942,VALID,0,VALID,23.9973,VALID,352,VALID,0.353125,
2008-03-25, 01:39:04,VALID,1003.19,VALID,0,VALID,92.3323,VALID,0,VALID,23.9389,VALID,352,VALID,0.354297,
2008-03-25, 01:40:04,VALID,1003.17,VALID,0,VALID,92.5765,VALID,0,VALID,23.9,VALID,352,VALID,0.247266,
2008-03-25, 01:41:04,VALID,1003.16,VALID,0,VALID,92.7519,VALID,0,VALID,23.8611,VALID,352,VALID,0.255078,
2008-03-25, 01:42:04,VALID,1003.13,VALID,0,VALID,92.9808,VALID,0,VALID,23.8416,VALID,352,VALID,0.311328,
2008-03-25, 01:43:04,VALID,1003.1,VALID,0,VALID,93.141,VALID,0.100563,VALID,23.8027,VALID,352,VALID,0.150391,
2008-03-25, 01:44:04,VALID,1003.08,VALID,0,VALID,93.3088,VALID,0,VALID,23.8045,VALID,352,VALID,0,
2008-03-25, 01:45:04,VALID,1003.06,VALID,0,VALID,93.4462,VALID,0,VALID,23.7832,VALID,352,VALID,0,
2008-03-25, 01:46:04,VALID,1003.05,VALID,0,VALID,93.5453,VALID,0,VALID,23.7443,VALID,352,VALID,0,
2008-03-25, 01:47:04,VALID,1003.03,VALID,0,VALID,93.7361,VALID,0,VALID,23.7443,VALID,352,VALID,0,
2008-03-25, 01:48:04,VALID,1003.03,VALID,0,VALID,93.8276,VALID,0,VALID,23.7443,VALID,352,VALID,0,
2008-03-25, 01:49:04,VALID,1003.03,VALID,0,VALID,94.0107,VALID,0,VALID,23.7461,VALID,352,VALID,0,
2008-03-25, 01:50:04,VALID,1003,VALID,0,VALID,94.1175,VALID,0,VALID,23.7461,VALID,352,VALID,0,
2008-03-25, 01:51:04,VALID,1002.99,VALID,0,VALID,94.1785,VALID,0,VALID,23.7248,VALID,352,VALID,0,
2008-03-25, 01:52:04,VALID,1003,VALID,0,VALID,94.1556,VALID,0,VALID,23.6859,VALID,352,VALID,0.333203,
2008-03-25, 01:53:04,VALID,1002.95,VALID,0,VALID,94.148,VALID,0,VALID,23.6859,VALID,352,VALID,0.305859,
2008-03-25, 01:54:04,VALID,1002.93,VALID,0,VALID,94.1251,VALID,0.100563,VALID,23.6646,VALID,352,VALID,0.360156,
2008-03-25, 01:55:04,VALID,1002.93,VALID,0,VALID,94.209,VALID,0,VALID,23.6664,VALID,352,VALID,0.375,
2008-03-25, 01:56:04,VALID,1002.91,VALID,0,VALID,94.293,VALID,0,VALID,23.6664,VALID,352,VALID,0.467578,
2008-03-25, 01:57:04,VALID,1002.91,VALID,0,VALID,94.354,VALID,0,VALID,23.6469,VALID,352,VALID,0.586328,
2008-03-25, 01:58:04,VALID,1002.9,VALID,0,VALID,94.4074,VALID,0,VALID,23.6469,VALID,352,VALID,0.457422,
2008-03-25, 01:59:04,VALID,1002.9,VALID,0,VALID,94.4761,VALID,0,VALID,23.6275,VALID,352,VALID,0.380078,
2008-03-25, 02:00:04,VALID,1002.85,VALID,0,VALID,94.5066,VALID,0,VALID,23.608,VALID,352,VALID,0.245703,
2008-03-25, 02:01:04,VALID,1002.83,VALID,0,VALID,94.5676,VALID,0,VALID,23.608,VALID,352,VALID,0.300391,
2008-03-25, 02:02:04,VALID,1002.84,VALID,0,VALID,94.621,VALID,0.100563,VALID,23.5885,VALID,352,VALID,0.390625,
2008-03-25, 02:03:04,VALID,1002.78,VALID,0,VALID,94.7049,VALID,0,VALID,23.5691,VALID,352,VALID,0.464453,
2008-03-25, 02:04:04,VALID,1002.81,VALID,0,VALID,94.7278,VALID,0,VALID,23.5691,VALID,352,VALID,0.213672,
2008-03-25, 02:05:04,VALID,1002.8,VALID,0,VALID,94.7812,VALID,0,VALID,23.5691,VALID,352,VALID,0.200781,
2008-03-25, 02:06:04,VALID,1002.81,VALID,0,VALID,94.827,VALID,0.100563,VALID,23.5691,VALID,352,VALID,0,
2008-03-25, 02:07:04,VALID,1002.81,VALID,0,VALID,94.9414,VALID,0,VALID,23.5496,VALID,352,VALID,0.135156,
2008-03-25, 02:08:04,VALID,1002.85,VALID,0,VALID,94.9643,VALID,0,VALID,23.5691,VALID,353,VALID,0,
2008-03-25, 02:09:04,VALID,1002.85,VALID,0,VALID,95.0101,VALID,0,VALID,23.5691,VALID,353,VALID,0.296875,
2008-03-25, 02:10:04,VALID,1002.85,VALID,0,VALID,95.0482,VALID,0,VALID,23.5691,VALID,353,VALID,0.250781,
2008-03-25, 02:11:04,VALID,1002.89,VALID,0,VALID,95.1627,VALID,0,VALID,23.6098,VALID,353,VALID,0.310937,
2008-03-25, 02:12:04,VALID,1002.87,VALID,0,VALID,95.1703,VALID,0,VALID,23.6098,VALID,353,VALID,0.217187,
2008-03-25, 02:13:04,VALID,1002.88,VALID,0,VALID,95.2008,VALID,0,VALID,23.6293,VALID,353,VALID,0,
2008-03-25, 02:14:04,VALID,1002.87,VALID,0,VALID,95.2389,VALID,0,VALID,23.6275,VALID,353,VALID,0.243359,
2008-03-25, 02:15:04,VALID,1002.88,VALID,0,VALID,95.2237,VALID,0,VALID,23.6062,VALID,356,VALID,0.447266,
2008-03-25, 02:16:04,VALID,1002.9,VALID,0,VALID,95.2466,VALID,0.100563,VALID,23.6487,VALID,360,VALID,0.0191406,
2008-03-25, 02:17:04,VALID,1002.91,VALID,0,VALID,95.2313,VALID,0,VALID,23.608,VALID,360,VALID,0.129297,
2008-03-25, 02:18:04,VALID,1002.89,VALID,0,VALID,95.2771,VALID,0,VALID,23.608,VALID,360,VALID,0,
2008-03-25, 02:19:04,VALID,1002.92,VALID,0,VALID,95.3534,VALID,0,VALID,23.6275,VALID,360,VALID,0,
2008-03-25, 02:20:04,VALID,1002.91,VALID,0,VALID,95.3305,VALID,0,VALID,23.6275,VALID,360,VALID,0.228125,
2008-03-25, 02:21:04,VALID,1002.93,VALID,0,VALID,95.361,VALID,0,VALID,23.6293,VALID,360,VALID,0.111328,
2008-03-25, 02:22:04,VALID,1002.93,VALID,0,VALID,95.4754,VALID,0,VALID,23.6487,VALID,360,VALID,0.230078,
2008-03-25, 02:23:04,VALID,1002.92,VALID,0,VALID,95.4831,VALID,0,VALID,23.6275,VALID,360,VALID,0.123828,
2008-03-25, 02:24:04,VALID,1002.9,VALID,0,VALID,95.422,VALID,0,VALID,23.6469,VALID,360,VALID,0,
2008-03-25, 02:25:04,VALID,1002.85,VALID,0,VALID,95.3763,VALID,0,VALID,23.6682,VALID,360,VALID,0,
2008-03-25, 02:26:04,VALID,1002.84,VALID,0,VALID,95.4449,VALID,0,VALID,23.6877,VALID,360,VALID,0,
2008-03-25, 02:27:04,VALID,1002.82,VALID,0,VALID,95.361,VALID,0,VALID,23.6859,VALID,360,VALID,0.0160156,
2008-03-25, 02:28:04,VALID,1002.82,VALID,0,VALID,95.2618,VALID,0,VALID,23.6664,VALID,360,VALID,0.396094,
2008-03-25, 02:29:04,VALID,1002.81,VALID,0,VALID,95.1245,VALID,0.100563,VALID,23.6664,VALID,359,VALID,0.369922,
2008-03-25, 02:30:04,VALID,1002.77,VALID,0,VALID,95.1169,VALID,0,VALID,23.6664,VALID,358,VALID,0.684375,
2008-03-25, 02:31:04,VALID,1002.76,VALID,0,VALID,95.1474,VALID,0,VALID,23.6664,VALID,356,VALID,0.268359,
2008-03-25, 02:32:04,VALID,1002.75,VALID,0,VALID,95.1016,VALID,0,VALID,23.6664,VALID,356,VALID,0.0667969,
2008-03-25, 02:33:04,VALID,1002.75,VALID,0,VALID,95.033,VALID,0,VALID,23.6664,VALID,356,VALID,0.287891,
2008-03-25, 02:34:04,VALID,1002.72,VALID,0,VALID,94.9872,VALID,0,VALID,23.6859,VALID,356,VALID,0.0734375,
2008-03-25, 02:35:04,VALID,1002.74,VALID,0,VALID,94.8194,VALID,0,VALID,23.6469,VALID,355,VALID,0.498828,
2008-03-25, 02:36:04,VALID,1002.72,VALID,0,VALID,94.7202,VALID,0,VALID,23.6877,VALID,345,VALID,0.176563,
2008-03-25, 02:37:04,VALID,1002.69,VALID,0,VALID,94.5371,VALID,0,VALID,23.6469,VALID,345,VALID,0.425,
2008-03-25, 02:38:04,VALID,1002.73,VALID,0,VALID,94.4227,VALID,0,VALID,23.6469,VALID,346,VALID,0.380859,
2008-03-25, 02:39:04,VALID,1002.7,VALID,0,VALID,94.2472,VALID,0.100563,VALID,23.6469,VALID,344,VALID,0.480859,
2008-03-25, 02:40:04,VALID,1002.7,VALID,0,VALID,94.1938,VALID,0.100563,VALID,23.6469,VALID,360,VALID,0.15625,
2008-03-25, 02:41:04,VALID,1002.7,VALID,0,VALID,94.1328,VALID,0.100563,VALID,23.6469,VALID,360,VALID,0.0703125,
2008-03-25, 02:42:04,VALID,1002.68,VALID,0,VALID,94.0641,VALID,0,VALID,23.6682,VALID,360,VALID,0.21875,
2008-03-25, 02:43:04,VALID,1002.67,VALID,0,VALID,93.9573,VALID,0.100563,VALID,23.6469,VALID,360,VALID,0,
2008-03-25, 02:44:04,VALID,1002.67,VALID,0,VALID,93.8734,VALID,0,VALID,23.6469,VALID,337,VALID,0.219922,
2008-03-25, 02:45:04,VALID,1002.66,VALID,0,VALID,93.7361,VALID,0,VALID,23.6664,VALID,337,VALID,0.260547,
2008-03-25, 02:46:04,VALID,1002.67,VALID,0,VALID,93.6903,VALID,0,VALID,23.6877,VALID,338,VALID,0.482031,
2008-03-25, 02:47:04,VALID,1002.65,VALID,0,VALID,93.6521,VALID,0,VALID,23.6664,VALID,352,VALID,0.423828,
2008-03-25, 02:48:04,VALID,1002.68,VALID,0,VALID,93.6598,VALID,0,VALID,23.6487,VALID,353,VALID,0.405469,
2008-03-25, 02:49:04,VALID,1002.7,VALID,0,VALID,93.7208,VALID,0,VALID,23.5885,VALID,353,VALID,0.336328,
2008-03-25, 02:50:04,VALID,1002.69,VALID,0,VALID,93.7666,VALID,0,VALID,23.5903,VALID,353,VALID,0.402734,
2008-03-25, 02:51:04,VALID,1002.67,VALID,0,VALID,93.9344,VALID,0,VALID,23.5302,VALID,353,VALID,0.45625,
2008-03-25, 02:52:04,VALID,1002.68,VALID,0,VALID,93.9954,VALID,0,VALID,23.5107,VALID,353,VALID,0.305078,
2008-03-25, 02:53:04,VALID,1002.66,VALID,0,VALID,94.1556,VALID,0.100563,VALID,23.4912,VALID,353,VALID,0.390234,
2008-03-25, 02:54:04,VALID,1002.66,VALID,0,VALID,94.354,VALID,0.100563,VALID,23.4718,VALID,12,VALID,0.567578,
2008-03-25, 02:55:04,VALID,1002.67,VALID,0,VALID,94.5371,VALID,0,VALID,23.4718,VALID,17,VALID,0.485156,
2008-03-25, 02:56:04,VALID,1002.69,VALID,0,VALID,94.6439,VALID,0.100563,VALID,23.4718,VALID,17,VALID,0.417969,
2008-03-25, 02:57:04,VALID,1002.66,VALID,0,VALID,94.7431,VALID,0.100563,VALID,23.5107,VALID,15,VALID,0.561328,
2008-03-25, 02:58:04,VALID,1002.66,VALID,0,VALID,94.6363,VALID,0.100563,VALID,23.5107,VALID,15,VALID,0.552734,
2008-03-25, 02:59:04,VALID,1002.67,VALID,0,VALID,94.6591,VALID,0.100563,VALID,23.4912,VALID,15,VALID,0.322656,
2008-03-25, 03:00:04,VALID,1002.67,VALID,0,VALID,94.7583,VALID,0.100563,VALID,23.4912,VALID,15,VALID,0.282813,
2008-03-25, 03:01:04,VALID,1002.65,VALID,0,VALID,94.7202,VALID,0.100563,VALID,23.4912,VALID,15,VALID,0.241406,
2008-03-25, 03:02:04,VALID,1002.66,VALID,0,VALID,94.766,VALID,0,VALID,23.5107,VALID,15,VALID,0.240625,
2008-03-25, 03:03:04,VALID,1002.65,VALID,0,VALID,94.8422,VALID,0.100563,VALID,23.5107,VALID,15,VALID,0.0359375,
2008-03-25, 03:04:04,VALID,1002.66,VALID,0,VALID,94.8194,VALID,0,VALID,23.5107,VALID,13,VALID,0.451562,
2008-03-25, 03:05:04,VALID,1002.65,VALID,0,VALID,94.7278,VALID,0,VALID,23.5107,VALID,12,VALID,0.411719,
2008-03-25, 03:06:04,VALID,1002.7,VALID,0,VALID,94.6973,VALID,0.100563,VALID,23.4912,VALID,12,VALID,0.395703,
2008-03-25, 03:07:04,VALID,1002.68,VALID,0,VALID,94.5981,VALID,0.100563,VALID,23.4718,VALID,12,VALID,0.303906,
2008-03-25, 03:08:04,VALID,1002.67,VALID,0,VALID,94.5905,VALID,0,VALID,23.4541,VALID,12,VALID,0.304297,
2008-03-25, 03:09:04,VALID,1002.67,VALID,0,VALID,94.6286,VALID,0,VALID,23.4346,VALID,12,VALID,0.18125,
2008-03-25, 03:10:04,VALID,1002.67,VALID,0,VALID,94.7125,VALID,0,VALID,23.4151,VALID,12,VALID,0,
2008-03-25, 03:11:04,VALID,1002.66,VALID,0,VALID,94.7354,VALID,0,VALID,23.3957,VALID,12,VALID,0.203125,
2008-03-25, 03:12:04,VALID,1002.65,VALID,0,VALID,94.8422,VALID,0,VALID,23.355,VALID,12,VALID,0.382031,
2008-03-25, 03:13:04,VALID,1002.63,VALID,0,VALID,94.888,VALID,0,VALID,23.3762,VALID,12,VALID,0.183203,
2008-03-25, 03:14:04,VALID,1002.65,VALID,0,VALID,94.9567,VALID,0,VALID,23.3567,VALID,12,VALID,0.592969,
2008-03-25, 03:15:04,VALID,1002.62,VALID,0,VALID,94.8575,VALID,0,VALID,23.2983,VALID,12,VALID,0.388281,
2008-03-25, 03:16:04,VALID,1002.64,VALID,0,VALID,94.9185,VALID,0,VALID,23.3196,VALID,12,VALID,0.45,
2008-03-25, 03:17:04,VALID,1002.64,VALID,0,VALID,95.2542,VALID,0,VALID,23.2983,VALID,12,VALID,0.442969,
2008-03-25, 03:18:04,VALID,1002.66,VALID,0,VALID,95.1474,VALID,0,VALID,23.2577,VALID,11,VALID,0.454688,
2008-03-25, 03:19:04,VALID,1002.65,VALID,0,VALID,95.1169,VALID,0,VALID,23.2594,VALID,11,VALID,0.495313,
2008-03-25, 03:20:04,VALID,1002.66,VALID,0,VALID,95.1398,VALID,0,VALID,23.2205,VALID,11,VALID,0.561719,
2008-03-25, 03:21:04,VALID,1002.62,VALID,0,VALID,95.2771,VALID,0,VALID,23.201,VALID,11,VALID,0.512891,
2008-03-25, 03:22:04,VALID,1002.64,VALID,0,VALID,95.3229,VALID,0,VALID,23.201,VALID,11,VALID,0.475,
2008-03-25, 03:23:04,VALID,1002.64,VALID,0,VALID,95.2923,VALID,0,VALID,23.1798,VALID,11,VALID,0.487109,
2008-03-25, 03:24:04,VALID,1002.63,VALID,0,VALID,95.3305,VALID,0,VALID,23.1603,VALID,11,VALID,0.448047,
2008-03-25, 03:25:04,VALID,1002.63,VALID,0,VALID,95.3915,VALID,0,VALID,23.1409,VALID,11,VALID,0.323047,
2008-03-25, 03:26:04,VALID,1002.64,VALID,0,VALID,95.4373,VALID,0,VALID,23.1409,VALID,11,VALID,0.369531,
2008-03-25, 03:27:04,VALID,1002.63,VALID,0,VALID,95.4983,VALID,0,VALID,23.1197,VALID,11,VALID,0.392969,
2008-03-25, 03:28:04,VALID,1002.62,VALID,0,VALID,95.5288,VALID,0,VALID,23.1214,VALID,11,VALID,0.447266,
2008-03-25, 03:29:04,VALID,1002.64,VALID,0,VALID,95.6509,VALID,0.100563,VALID,23.1409,VALID,11,VALID,0.405078,
2008-03-25, 03:30:04,VALID,1002.65,VALID,0,VALID,95.6128,VALID,0.100563,VALID,23.1409,VALID,11,VALID,0.388672,
2008-03-25, 03:31:04,VALID,1002.66,VALID,0,VALID,95.6204,VALID,0.100563,VALID,23.1214,VALID,11,VALID,0.286719,
2008-03-25, 03:32:04,VALID,1002.68,VALID,0,VALID,95.6433,VALID,0,VALID,23.1214,VALID,11,VALID,0.178906,
2008-03-25, 03:33:04,VALID,1002.66,VALID,0,VALID,95.7577,VALID,0.100563,VALID,23.1603,VALID,11,VALID,0.271094,
2008-03-25, 03:34:04,VALID,1002.67,VALID,0,VALID,95.8035,VALID,0,VALID,23.1603,VALID,11,VALID,0.349219,
2008-03-25, 03:35:04,VALID,1002.69,VALID,0,VALID,95.8264,VALID,0,VALID,23.1603,VALID,11,VALID,0.497266,
2008-03-25, 03:36:04,VALID,1002.68,VALID,0,VALID,95.834,VALID,0,VALID,23.1603,VALID,11,VALID,0.388281,
2008-03-25, 03:37:04,VALID,1002.66,VALID,0,VALID,95.8416,VALID,0,VALID,23.1816,VALID,11,VALID,0.335156,
2008-03-25, 03:38:04,VALID,1002.71,VALID,0,VALID,95.8721,VALID,0,VALID,23.1798,VALID,11,VALID,0.244531,
2008-03-25, 03:39:04,VALID,1002.7,VALID,0,VALID,95.8035,VALID,0,VALID,23.1816,VALID,11,VALID,0.253906,
2008-03-25, 03:40:04,VALID,1002.71,VALID,0,VALID,95.7272,VALID,0,VALID,23.1214,VALID,11,VALID,0.0636719,
2008-03-25, 03:41:04,VALID,1002.74,VALID,0,VALID,95.7577,VALID,0,VALID,23.1019,VALID,11,VALID,0,
2008-03-25, 03:42:04,VALID,1002.73,VALID,0,VALID,95.7348,VALID,0,VALID,23.0825,VALID,11,VALID,0,
2008-03-25, 03:43:04,VALID,1002.73,VALID,0,VALID,95.7348,VALID,0,VALID,23.063,VALID,11,VALID,0,